Tracking 25701 objects as of 3-Jul-2022
HD Live streaming from Space Station
objects crossing your sky now

COSMOS 970 DEB

Track COSMOS 970 DEB now!
10-day predictions


NORAD ID: 10886
Int'l Code: 1977-121AH
Perigee: 924.7 km
Apogee: 1,074.4 km
Inclination: 65.8 °
Period: 105.0 minutes
Semi major axis: 7370 km
RCS: 0.0098 m2 (small)
Launch date: December 21, 1977
Source: Commonwealth of Independent States (former USSR) (CIS)
Launch site: TYURATAM MISSILE AND SPACE COMPLEX (TTMTR)

Note: This is SATELLITE DEBRIS
aabbcc
Your satellite tracking list
Your tracking list is empty




NASA's NSSDC Master Catalog

Two Line Element Set (TLE):
1 10886U 77121AH  22184.43721448 -.00000026  00000-0  57523-4 0  9996
2 10886  65.8457 297.0867 0101548 118.9910 314.3141 13.71998130221573
Source of the keplerian elements: AFSPC